Simultaneous Nadir Overpasses (SNOs) Predictions

Prediction of SNOs between FY3D and AQUA Satellite Orbit:

Table of predicted SNOs for the next 14.0 days since TLE Epoch: 2/13/2025
Index Date (FY3D) Time (FY3D) Lat,Lon (FY3D) SZA (FY3D ) Date (AQUA) Time (AQUA) Lat,Lon (AQUA) SZA (AQUA ) Distance(km) Time Diff (sec)
1 02/15/2025 20:40:32 79.57,-145.11 92.40 02/15/2025 20:41:03 79.57,-145.14 92.40 0.59 31
2 02/15/2025 21:31:09 -79.31, 24.44 87.98 02/15/2025 21:30:15 -79.32, 24.33 87.96 2.23 54
3 02/18/2025 07:02:08 -79.51,-119.97 88.54 02/18/2025 07:02:32 -79.52,-120.10 88.53 2.84 24
4 02/18/2025 07:52:48 79.37, 48.62 91.25 02/18/2025 07:51:47 79.37, 48.68 91.26 1.17 61
5 02/20/2025 17:23:47 79.58, -95.87 90.68 02/20/2025 17:24:02 79.57, -95.74 90.66 2.72 15
6 02/20/2025 18:14:25 -79.35, 73.44 89.66 02/20/2025 18:13:15 -79.35, 73.51 89.65 1.44 70
7 02/23/2025 03:45:22 -79.50, -70.52 90.33 02/23/2025 03:45:27 -79.50, -70.55 90.33 0.66 5



Historial Predications of SNOs between FY3D and AQUA
